Location: Barrio Las Umbrías
(40.4173°N, 4.8685°W)
Time: 12:38:53
(UTC+00:00)

CZ-2C R/B - Pass Details

Date: 17 August 2022
Orbit: 640 x 702 km, 98.3° (Epoch: 27 September)

Event Time Altitude Azimuth Distance (km) Brightness Sun altitude
Rises 21:45:46 0° 16° (NNE) 2,987 7.5 -25.1°
Reaches altitude 10° 21:48:00 10° 20° (NNE) 2,080 6.6 -25.4°
Enters shadow 21:51:11 43° 40° (NE) 936 4.4 -25.8°
